カタログに戻る

DELTA 1 DEB

運用中UNKNOWN
NORAD 14497·DEBRIS·🇺🇸 United States

打ち上げ Jul 14, 1977 から Cape Canaveral Space Force Station

Loading…

次のパス (今後24時間)

TLE

最新Source: Space-Track

元期: Sep 13, 2026, 18:46 UTC

1 14497U 77065FN  26256.78219983  .00000372  00000-0  10697-2 0  9995
2 14497  29.3009  57.2201 0886577 304.8229  66.7110 12.08215046991768

AllMySatでDELTA 1 DEBをリアルタイム追跡

Download on the App Store